Time,TemperatureF,DewpointF,PressureIn,WindDirection,WindDirectionDegrees,WindSpeedMPH,WindSpeedGustMPH,Humidity,HourlyPrecipIn,Conditions,Clouds,dailyrainin,SoftwareType,DateUTC
2013-08-08 00:02:00,69.0,63.0,29.85,SE,134,0.0,2.0,80,0.00,,,0.00,,2013-08-08 05:02:00,
2013-08-08 00:11:00,69.0,63.0,29.86,SE,133,0.0,3.0,80,0.00,,,0.00,,2013-08-08 05:11:00,
2013-08-08 00:22:00,69.0,63.0,29.86,SE,133,0.0,3.0,80,0.00,,,0.00,,2013-08-08 05:22:00,
2013-08-08 00:33:00,69.0,63.0,29.87,SE,134,0.0,1.0,81,0.00,,,0.00,,2013-08-08 05:33:00,
2013-08-08 00:43:00,68.0,63.0,29.86,SE,133,0.0,0.0,83,0.00,,,0.00,,2013-08-08 05:43:00,
2013-08-08 00:52:00,68.0,63.0,29.86,SE,133,0.0,0.0,83,0.00,,,0.00,,2013-08-08 05:52:00,
2013-08-08 01:01:00,69.0,64.0,29.86,SE,133,0.0,1.0,83,0.00,,,0.00,,2013-08-08 06:01:00,
2013-08-08 01:11:00,69.0,63.0,29.86,SE,133,0.0,2.0,82,0.00,,,0.00,,2013-08-08 06:11:00,
2013-08-08 01:21:00,69.0,63.0,29.86,SE,133,0.0,2.0,82,0.00,,,0.00,,2013-08-08 06:21:00,
2013-08-08 01:32:00,69.0,64.0,29.86,SE,134,0.0,1.0,83,0.00,,,0.00,,2013-08-08 06:32:00,
2013-08-08 01:43:00,68.0,63.0,29.86,SE,133,0.0,1.0,84,0.00,,,0.00,,2013-08-08 06:43:00,
2013-08-08 01:52:00,68.0,63.0,29.86,SE,133,0.0,1.0,84,0.00,,,0.00,,2013-08-08 06:52:00,
2013-08-08 02:01:00,68.0,63.0,29.85,SE,134,0.0,2.0,84,0.00,,,0.00,,2013-08-08 07:01:00,
2013-08-08 02:12:00,68.0,63.0,29.85,SE,134,0.0,3.0,84,0.00,,,0.00,,2013-08-08 07:12:00,
2013-08-08 02:22:00,68.0,63.0,29.85,SE,134,0.0,3.0,84,0.00,,,0.00,,2013-08-08 07:22:00,
2013-08-08 02:32:00,67.0,62.0,29.86,SE,133,0.0,2.0,85,0.00,,,0.00,,2013-08-08 07:32:00,
2013-08-08 02:43:00,67.0,63.0,29.85,SE,134,2.0,4.0,86,0.00,,,0.00,,2013-08-08 07:43:00,
2013-08-08 02:53:00,67.0,63.0,29.85,SE,134,2.0,4.0,86,0.00,,,0.00,,2013-08-08 07:53:00,
2013-08-08 03:02:00,67.0,63.0,29.85,SW,217,0.0,0.0,88,0.00,,,0.00,,2013-08-08 08:02:00,
2013-08-08 03:11:00,67.0,62.0,29.84,SSW,202,1.0,4.0,85,0.00,,,0.00,,2013-08-08 08:11:00,
2013-08-08 03:22:00,67.0,62.0,29.84,SSW,202,1.0,4.0,85,0.00,,,0.00,,2013-08-08 08:22:00,
2013-08-08 03:32:00,68.0,63.0,29.84,SSW,203,2.0,5.0,83,0.00,,,0.00,,2013-08-08 08:32:00,
2013-08-08 03:43:00,67.0,62.0,29.84,SSW,203,0.0,2.0,84,0.00,,,0.00,,2013-08-08 08:43:00,
2013-08-08 03:53:00,67.0,62.0,29.84,SSW,203,0.0,2.0,84,0.00,,,0.00,,2013-08-08 08:53:00,
2013-08-08 04:01:00,67.0,62.0,29.84,SSW,205,0.0,1.0,85,0.00,,,0.00,,2013-08-08 09:01:00,
2013-08-08 04:12:00,66.0,61.0,29.85,SW,232,0.0,3.0,85,0.00,,,0.00,,2013-08-08 09:12:00,
2013-08-08 04:22:00,66.0,61.0,29.85,SW,232,0.0,3.0,85,0.00,,,0.00,,2013-08-08 09:22:00,
2013-08-08 04:32:00,66.0,62.0,29.85,North,9,0.0,5.0,87,0.01,,,0.01,,2013-08-08 09:32:00,
2013-08-08 04:43:00,65.0,62.0,29.84,North,5,1.0,4.0,90,0.01,,,0.01,,2013-08-08 09:43:00,
2013-08-08 04:53:00,65.0,62.0,29.84,North,5,1.0,4.0,90,0.01,,,0.01,,2013-08-08 09:53:00,
2013-08-08 05:01:00,65.0,62.0,29.84,North,5,0.0,1.0,90,0.01,,,0.01,,2013-08-08 10:01:00,
2013-08-08 05:11:00,65.0,62.0,29.83,North,360,0.0,1.0,91,0.01,,,0.01,,2013-08-08 10:11:00,
2013-08-08 05:22:00,65.0,62.0,29.83,North,360,0.0,1.0,91,0.01,,,0.01,,2013-08-08 10:22:00,
2013-08-08 05:32:00,65.0,62.0,29.82,SE,132,2.0,4.0,90,0.00,,,0.01,,2013-08-08 10:32:00,
2013-08-08 05:43:00,65.0,62.0,29.82,SE,126,2.0,7.0,90,0.00,,,0.01,,2013-08-08 10:43:00,
2013-08-08 05:52:00,65.0,62.0,29.82,SE,126,2.0,7.0,90,0.00,,,0.01,,2013-08-08 10:52:00,
2013-08-08 06:02:00,65.0,62.0,29.82,ESE,123,0.0,4.0,91,0.00,,,0.01,,2013-08-08 11:02:00,
2013-08-08 06:11:00,65.0,62.0,29.83,ESE,123,0.0,2.0,91,0.00,,,0.01,,2013-08-08 11:11:00,
2013-08-08 06:21:00,65.0,62.0,29.83,ESE,123,0.0,2.0,91,0.00,,,0.01,,2013-08-08 11:21:00,
2013-08-08 06:32:00,65.0,63.0,29.84,ESE,123,0.0,2.0,92,0.01,,,0.02,,2013-08-08 11:32:00,
2013-08-08 06:43:00,65.0,63.0,29.86,ESE,123,0.0,3.0,93,0.01,,,0.02,,2013-08-08 11:43:00,
2013-08-08 06:52:00,65.0,63.0,29.86,ESE,123,0.0,3.0,93,0.01,,,0.02,,2013-08-08 11:52:00,
2013-08-08 07:01:00,64.0,62.0,29.87,ESE,114,0.0,3.0,93,0.01,,,0.02,,2013-08-08 12:01:00,
2013-08-08 07:11:00,64.0,62.0,29.87,ESE,114,0.0,3.0,93,0.02,,,0.03,,2013-08-08 12:11:00,
2013-08-08 07:21:00,64.0,62.0,29.87,ESE,114,0.0,3.0,93,0.02,,,0.03,,2013-08-08 12:21:00,
2013-08-08 07:32:00,64.0,62.0,29.88,ESE,114,0.0,1.0,93,0.03,,,0.05,,2013-08-08 12:32:00,
2013-08-08 07:43:00,64.0,62.0,29.88,ESE,114,0.0,0.0,93,0.04,,,0.06,,2013-08-08 12:43:00,
2013-08-08 07:52:00,64.0,62.0,29.88,ESE,114,0.0,0.0,93,0.04,,,0.06,,2013-08-08 12:52:00,
2013-08-08 08:01:00,64.0,62.0,29.88,ESE,114,0.0,0.0,94,0.04,,,0.06,,2013-08-08 13:01:00,
2013-08-08 08:11:00,64.0,62.0,29.87,ESE,114,0.0,2.0,94,0.03,,,0.06,,2013-08-08 13:11:00,
2013-08-08 08:22:00,64.0,62.0,29.87,ESE,114,0.0,2.0,94,0.03,,,0.06,,2013-08-08 13:22:00,
2013-08-08 08:32:00,65.0,63.0,29.88,ESE,114,0.0,1.0,94,0.01,,,0.06,,2013-08-08 13:32:00,
2013-08-08 08:43:00,65.0,64.0,29.88,ESE,114,0.0,2.0,95,0.00,,,0.06,,2013-08-08 13:43:00,
2013-08-08 08:52:00,65.0,64.0,29.88,ESE,114,0.0,2.0,95,0.00,,,0.06,,2013-08-08 13:52:00,
2013-08-08 09:02:00,65.0,64.0,29.88,ESE,114,0.0,1.0,95,0.00,,,0.06,,2013-08-08 14:02:00,
2013-08-08 09:11:00,65.0,64.0,29.88,ESE,114,0.0,2.0,95,0.00,,,0.06,,2013-08-08 14:11:00,
2013-08-08 09:22:00,65.0,64.0,29.88,ESE,114,0.0,2.0,95,0.00,,,0.06,,2013-08-08 14:22:00,
2013-08-08 09:32:00,65.0,64.0,29.88,ESE,114,0.0,0.0,95,0.00,,,0.06,,2013-08-08 14:32:00,
2013-08-08 09:43:00,66.0,65.0,29.88,ESE,114,0.0,0.0,95,0.00,,,0.06,,2013-08-08 14:43:00,
2013-08-08 09:53:00,66.0,65.0,29.88,ESE,114,0.0,0.0,95,0.00,,,0.06,,2013-08-08 14:53:00,
2013-08-08 10:02:00,66.0,64.0,29.88,ESE,114,0.0,1.0,94,0.00,,,0.06,,2013-08-08 15:02:00,
2013-08-08 10:11:00,66.0,64.0,29.89,ESE,114,0.0,2.0,94,0.00,,,0.06,,2013-08-08 15:11:00,
2013-08-08 10:22:00,66.0,64.0,29.89,ESE,114,0.0,2.0,94,0.00,,,0.06,,2013-08-08 15:22:00,
2013-08-08 10:32:00,66.0,64.0,29.90,ESE,114,0.0,1.0,93,0.00,,,0.06,,2013-08-08 15:32:00,
2013-08-08 10:43:00,67.0,65.0,29.90,ESE,114,0.0,3.0,93,0.00,,,0.06,,2013-08-08 15:43:00,
2013-08-08 10:53:00,67.0,65.0,29.90,ESE,114,0.0,3.0,93,0.00,,,0.06,,2013-08-08 15:53:00,
2013-08-08 11:02:00,67.0,64.0,29.90,ESE,114,0.0,1.0,91,0.00,,,0.06,,2013-08-08 16:02:00,
2013-08-08 11:11:00,67.0,64.0,29.90,ESE,114,0.0,3.0,89,0.00,,,0.06,,2013-08-08 16:11:00,
2013-08-08 11:22:00,67.0,64.0,29.90,ESE,114,0.0,3.0,89,0.00,,,0.06,,2013-08-08 16:22:00,
2013-08-08 11:32:00,68.0,64.0,29.90,ESE,114,1.0,3.0,88,0.00,,,0.06,,2013-08-08 16:32:00,
2013-08-08 11:42:00,68.0,64.0,29.91,WSW,245,0.0,3.0,87,0.00,,,0.06,,2013-08-08 16:42:00,
2013-08-08 11:52:00,68.0,64.0,29.91,WSW,245,0.0,3.0,87,0.00,,,0.06,,2013-08-08 16:52:00,
2013-08-08 12:02:00,69.0,64.0,29.91,WSW,246,0.0,2.0,85,0.00,,,0.06,,2013-08-08 17:02:00,
2013-08-08 12:11:00,70.0,65.0,29.91,WSW,246,0.0,3.0,84,0.00,,,0.06,,2013-08-08 17:11:00,
2013-08-08 12:21:00,70.0,65.0,29.91,WSW,246,0.0,3.0,84,0.00,,,0.06,,2013-08-08 17:21:00,
2013-08-08 12:32:00,70.0,65.0,29.90,WNW,298,0.0,2.0,83,0.00,,,0.06,,2013-08-08 17:32:00,
2013-08-08 12:43:00,71.0,63.0,29.90,SSW,204,1.0,5.0,77,0.00,,,0.06,,2013-08-08 17:43:00,
2013-08-08 12:52:00,71.0,63.0,29.90,SSW,204,1.0,5.0,77,0.00,,,0.06,,2013-08-08 17:52:00,
2013-08-08 13:01:00,72.0,64.0,29.90,SW,218,0.0,4.0,77,0.00,,,0.06,,2013-08-08 18:01:00,
2013-08-08 13:11:00,72.0,63.0,29.90,SW,214,1.0,4.0,74,0.00,,,0.06,,2013-08-08 18:11:00,
2013-08-08 13:22:00,72.0,63.0,29.90,SW,214,1.0,4.0,74,0.00,,,0.06,,2013-08-08 18:22:00,
2013-08-08 13:32:00,72.0,62.0,29.90,SSW,198,2.0,5.0,72,0.00,,,0.06,,2013-08-08 18:32:00,
2013-08-08 13:43:00,73.0,63.0,29.90,WNW,292,0.0,5.0,72,0.00,,,0.06,,2013-08-08 18:43:00,
2013-08-08 13:52:00,73.0,63.0,29.90,WNW,292,0.0,5.0,72,0.00,,,0.06,,2013-08-08 18:52:00,
2013-08-08 14:01:00,73.0,63.0,29.91,West,267,0.0,5.0,72,0.00,,,0.06,,2013-08-08 19:01:00,
2013-08-08 14:11:00,74.0,64.0,29.90,WSW,250,2.0,5.0,71,0.00,,,0.06,,2013-08-08 19:11:00,
2013-08-08 14:22:00,74.0,64.0,29.90,WSW,250,2.0,5.0,71,0.00,,,0.06,,2013-08-08 19:22:00,
2013-08-08 14:32:00,74.0,63.0,29.90,WNW,298,1.0,6.0,69,0.00,,,0.06,,2013-08-08 19:32:00,
2013-08-08 14:43:00,74.0,61.0,29.90,WSW,256,2.0,5.0,63,0.00,,,0.06,,2013-08-08 19:43:00,
2013-08-08 14:54:00,74.0,61.0,29.90,WSW,256,2.0,5.0,63,0.00,,,0.06,,2013-08-08 19:54:00,
2013-08-08 15:02:00,75.0,62.0,29.90,WSW,256,0.0,2.0,65,0.00,,,0.06,,2013-08-08 20:02:00,
2013-08-08 15:11:00,76.0,61.0,29.90,WSW,239,1.0,5.0,60,0.00,,,0.06,,2013-08-08 20:11:00,
2013-08-08 15:22:00,76.0,61.0,29.90,WSW,239,1.0,5.0,60,0.00,,,0.06,,2013-08-08 20:22:00,
2013-08-08 15:32:00,77.0,61.0,29.90,South,178,0.0,4.0,58,0.00,,,0.06,,2013-08-08 20:32:00,
2013-08-08 15:42:00,76.0,60.0,29.90,SE,144,3.0,7.0,57,0.00,,,0.06,,2013-08-08 20:42:00,
2013-08-08 15:52:00,76.0,60.0,29.90,SE,144,3.0,7.0,57,0.00,,,0.06,,2013-08-08 20:52:00,
2013-08-08 16:01:00,77.0,60.0,29.90,SE,144,0.0,4.0,56,0.00,,,0.06,,2013-08-08 21:01:00,
2013-08-08 16:12:00,77.0,61.0,29.89,South,190,0.0,3.0,58,0.00,,,0.06,,2013-08-08 21:12:00,
2013-08-08 16:22:00,77.0,61.0,29.89,South,190,0.0,3.0,58,0.00,,,0.06,,2013-08-08 21:22:00,
2013-08-08 16:33:00,78.0,60.0,29.89,SE,135,0.0,7.0,54,0.00,,,0.06,,2013-08-08 21:33:00,
2013-08-08 16:43:00,77.0,62.0,29.89,SSE,160,2.0,5.0,59,0.00,,,0.06,,2013-08-08 21:43:00,
2013-08-08 16:52:00,77.0,62.0,29.89,SSE,160,2.0,5.0,59,0.00,,,0.06,,2013-08-08 21:52:00,
2013-08-08 17:04:00,77.0,62.0,29.89,SE,138,2.0,7.0,60,0.00,,,0.06,,2013-08-08 22:04:00,
2013-08-08 17:15:00,78.0,63.0,29.90,South,175,2.0,8.0,61,0.00,,,0.06,,2013-08-08 22:15:00,
2013-08-08 17:47:00,78.0,61.0,29.90,SE,128,4.0,8.0,56,0.00,,,0.06,,2013-08-08 22:47:00,
2013-08-08 17:55:00,78.0,61.0,29.90,SE,128,4.0,8.0,56,0.00,,,0.06,,2013-08-08 22:55:00,
2013-08-08 18:04:00,78.0,61.0,29.89,SSE,155,2.0,8.0,55,0.00,,,0.06,,2013-08-08 23:04:00,
2013-08-08 18:13:00,79.0,61.0,29.89,SE,141,4.0,9.0,55,0.00,,,0.06,,2013-08-08 23:13:00,
2013-08-08 18:23:00,79.0,61.0,29.89,SE,141,4.0,9.0,55,0.00,,,0.06,,2013-08-08 23:23:00,
2013-08-08 18:35:00,77.0,61.0,29.89,SSE,159,3.0,10.0,58,0.00,,,0.06,,2013-08-08 23:35:00,
2013-08-08 18:44:00,78.0,62.0,29.90,SE,144,4.0,11.0,57,0.00,,,0.06,,2013-08-08 23:44:00,
2013-08-08 18:53:00,78.0,62.0,29.90,SE,144,4.0,11.0,57,0.00,,,0.06,,2013-08-08 23:53:00,
2013-08-08 19:14:00,77.0,59.0,29.90,SSE,155,3.0,8.0,54,0.00,,,0.06,,2013-08-09 00:14:00,
2013-08-08 19:24:00,77.0,59.0,29.90,SSE,155,3.0,8.0,54,0.00,,,0.06,,2013-08-09 00:24:00,
2013-08-08 19:34:00,78.0,61.0,29.90,SE,136,2.0,7.0,56,0.00,,,0.06,,2013-08-09 00:34:00,
2013-08-08 19:45:00,77.0,61.0,29.89,SE,137,4.0,7.0,57,0.00,,,0.06,,2013-08-09 00:45:00,
2013-08-08 19:53:00,77.0,61.0,29.89,SE,137,4.0,7.0,57,0.00,,,0.06,,2013-08-09 00:53:00,
2013-08-08 20:02:00,77.0,58.0,29.89,SSE,161,2.0,8.0,52,0.00,,,0.06,,2013-08-09 01:02:00,
2013-08-08 20:13:00,77.0,60.0,29.89,SE,140,2.0,5.0,55,0.00,,,0.06,,2013-08-09 01:13:00,
2013-08-08 20:23:00,77.0,60.0,29.89,SE,140,2.0,5.0,55,0.00,,,0.06,,2013-08-09 01:23:00,
2013-08-08 20:33:00,76.0,62.0,29.88,SE,136,1.0,4.0,61,0.00,,,0.06,,2013-08-09 01:33:00,
2013-08-08 20:45:00,75.0,63.0,29.88,SE,140,2.0,5.0,67,0.00,,,0.06,,2013-08-09 01:45:00,
2013-08-08 20:55:00,75.0,63.0,29.88,SE,140,2.0,5.0,67,0.00,,,0.06,,2013-08-09 01:55:00,
2013-08-08 21:03:00,73.0,63.0,29.87,ESE,123,2.0,6.0,71,0.00,,,0.06,,2013-08-09 02:03:00,
2013-08-08 21:12:00,73.0,64.0,29.87,SE,140,3.0,8.0,74,0.00,,,0.06,,2013-08-09 02:12:00,
2013-08-08 21:23:00,73.0,64.0,29.87,SE,140,3.0,8.0,74,0.00,,,0.06,,2013-08-09 02:23:00,
2013-08-08 21:35:00,72.0,65.0,29.88,SSE,148,4.0,9.0,78,0.00,,,0.06,,2013-08-09 02:35:00,
2013-08-08 21:44:00,71.0,63.0,29.88,SE,144,2.0,6.0,77,0.00,,,0.06,,2013-08-09 02:44:00,
2013-08-08 21:55:00,71.0,63.0,29.88,SE,144,2.0,6.0,77,0.00,,,0.06,,2013-08-09 02:55:00,
2013-08-08 22:05:00,70.0,63.0,29.90,ESE,119,1.0,5.0,78,0.00,,,0.06,,2013-08-09 03:05:00,
2013-08-08 22:13:00,70.0,63.0,29.91,ESE,121,0.0,4.0,79,0.00,,,0.06,,2013-08-09 03:13:00,
2013-08-08 22:23:00,70.0,63.0,29.91,ESE,121,0.0,4.0,79,0.00,,,0.06,,2013-08-09 03:23:00,
2013-08-08 22:34:00,69.0,62.0,29.91,ESE,121,0.0,3.0,78,0.00,,,0.06,,2013-08-09 03:34:00,
2013-08-08 22:44:00,69.0,63.0,29.92,ESE,121,0.0,2.0,80,0.00,,,0.06,,2013-08-09 03:44:00,
2013-08-08 22:52:00,69.0,63.0,29.92,ESE,121,0.0,2.0,80,0.00,,,0.06,,2013-08-09 03:52:00,
2013-08-08 23:01:00,69.0,63.0,29.92,ESE,121,0.0,2.0,80,0.00,,,0.06,,2013-08-09 04:01:00,
2013-08-08 23:12:00,68.0,62.0,29.92,ESE,122,1.0,4.0,80,0.00,,,0.06,,2013-08-09 04:12:00,
2013-08-08 23:22:00,68.0,62.0,29.92,ESE,122,1.0,4.0,80,0.00,,,0.06,,2013-08-09 04:22:00,
2013-08-08 23:33:00,68.0,62.0,29.93,ESE,122,0.0,0.0,82,0.00,,,0.06,,2013-08-09 04:33:00,
2013-08-08 23:43:00,67.0,62.0,29.92,ESE,122,0.0,2.0,84,0.00,,,0.06,,2013-08-09 04:43:00,
2013-08-08 23:53:00,67.0,62.0,29.92,ESE,122,0.0,2.0,84,0.00,,,0.06,,2013-08-09 04:53:00,